Cushing, OK

2:13 AM CDT on September 16, 2019 (GMT -0500)
Cushing Municipal

Weather History for KCUH - August, 2019

Change the Weather History Date:

Sunday, August 18, 2019

  Actual Average Record
Temperature  
Mean Temperature 80 °F -  
Max Temperature 91 °F 93 °F 110 °F (1956)
Min Temperature 70 °F 69 °F 59 °F (1992)
Cooling Degree Days 16    
Growing Degree Days 30 (Base 50)    
Moisture  
Dew Point 73 °F    
Average Humidity 73    
Maximum Humidity 91    
Minimum Humidity 60    
Precipitation  
Precipitation 0.40 in - - ()
Sea Level Pressure  
Sea Level Pressure 29.85 in    
Wind  
Wind Speed 8 mph (SE)    
Max Wind Speed 16 mph    
Max Gust Speed 21 mph    
Visibility 10 miles    
Events Rain , Thunderstorm    
Averages and records for this station are not official NWS values.
T = Trace of Precipitation, MM = Missing Value Source: NWS Daily Summary

Daily Weather History Graph

Daily Weather History Graph

Search for Another Location

Airport or City:

Astronomy

Aug. 18, 2019 Rise Set
Actual Time 6:47 AM CDT 8:13 PM CDT
Civil Twilight 6:20 AM CDT 8:40 PM CDT
Nautical Twilight 5:48 AM CDT 9:12 PM CDT
Astronomical Twilight 5:14 AM CDT 9:46 PM CDT
Moon 10:13 PM CDT (8/18) 9:29 AM CDT (8/18)
Length of Visible Light 14h 19m
Length of Day
13h 25m
Waning Gibbous, 91% of the Moon is Illuminated
Aug 18
Waning Gibbous
Aug 23
Last Quarter
Aug 30
New
Sep 5
First Quarter
Sep 13
Full

Hourly Weather History & Observations

Time (CDT) Temp. Heat Index Dew Point Humidity Pressure Visibility Wind Dir Wind Speed Gust Speed Precip Events Conditions
12:15 AM 84.0 °F 89.6 °F 72.0 °F 67% 29.78 in 10.0 mi SSE 9.2 mph - N/A   Scattered Clouds
12:35 AM 83.8 °F 89.2 °F 72.0 °F 67% 29.80 in 10.0 mi SSE 9.2 mph - N/A   Scattered Clouds
12:55 AM 83.3 °F 88.4 °F 72.0 °F 68% 29.78 in 10.0 mi SSE 9.2 mph - N/A   Clear
1:15 AM 83.3 °F 88.4 °F 72.0 °F 68% 29.77 in 10.0 mi SSE 13.8 mph 17.3 mph N/A   Clear
1:35 AM 82.9 °F 88.0 °F 71.8 °F 69% 29.76 in 10.0 mi SSE 10.4 mph 17.3 mph N/A   Clear
1:55 AM 82.8 °F 87.7 °F 71.6 °F 69% 29.75 in 10.0 mi SSE 12.7 mph 17.3 mph N/A   Clear
2:15 AM 82.2 °F 86.9 °F 71.6 °F 70% 29.75 in 10.0 mi SSE 9.2 mph - N/A   Clear
2:35 AM 81.9 °F 86.2 °F 71.4 °F 70% 29.75 in 10.0 mi SSE 10.4 mph - N/A   Clear
2:55 AM 81.5 °F 85.5 °F 70.9 °F 70% 29.76 in 10.0 mi South 8.1 mph - N/A   Clear
3:15 AM 80.8 °F 84.2 °F 70.2 °F 70% 29.77 in 10.0 mi South 5.8 mph - N/A   Clear
3:35 AM 80.1 °F 83.2 °F 69.8 °F 71% 29.78 in 10.0 mi South 3.5 mph - N/A   Clear
3:55 AM 79.7 °F - 69.6 °F 71% 29.78 in 10.0 mi South 6.9 mph - N/A   Clear
4:15 AM 78.4 °F - 69.1 °F 73% 29.80 in 10.0 mi Calm Calm - N/A   Clear
4:35 AM 77.5 °F - 69.6 °F 76% 29.84 in 10.0 mi North 4.6 mph - N/A   Clear
4:55 AM 77.4 °F - 69.4 °F 76% 29.85 in 10.0 mi North 4.6 mph - N/A   Clear
5:15 AM 77.7 °F - 70.3 °F 78% 29.86 in 10.0 mi North 5.8 mph - N/A   Clear
5:35 AM 78.1 °F - 71.6 °F 80% 29.86 in 10.0 mi ENE 5.8 mph - N/A   Clear
5:55 AM 78.1 °F - 71.8 °F 81% 29.86 in 10.0 mi ENE 3.5 mph - N/A   Clear
6:15 AM 77.9 °F - 71.6 °F 81% 29.85 in 10.0 mi East 5.8 mph - N/A   Clear
6:35 AM 76.3 °F - 71.6 °F 85% 29.86 in 10.0 mi Calm Calm - N/A   Clear
6:55 AM 76.3 °F - 71.6 °F 85% 29.85 in 10.0 mi East 6.9 mph - N/A   Clear
7:15 AM 76.1 °F - 71.6 °F 86% 29.86 in 10.0 mi East 3.5 mph - N/A   Clear
7:35 AM 77.0 °F - 71.8 °F 84% 29.87 in 10.0 mi Calm Calm - N/A   Clear
7:55 AM 77.9 °F - 72.0 °F 82% 29.87 in 10.0 mi East 3.5 mph - N/A   Clear
8:15 AM 78.8 °F - 72.3 °F 80% 29.88 in 10.0 mi ENE 3.5 mph - N/A   Clear
8:35 AM 77.9 °F - 72.7 °F 84% 29.89 in 10.0 mi East 4.6 mph - N/A Rain Light Rain
8:55 AM 77.4 °F - 73.2 °F 87% 29.91 in 10.0 mi NE 4.6 mph - N/A   Light Drizzle
9:15 AM 75.7 °F - 73.0 °F 91% 29.91 in 10.0 mi NE 5.8 mph - N/A Rain Light Rain
9:35 AM 74.7 °F - 70.0 °F 85% 29.94 in 10.0 mi NNE 15.0 mph 19.6 mph 0.02 in   Overcast
9:55 AM 72.9 °F - 67.3 °F 83% 29.98 in 10.0 mi North 11.5 mph 20.7 mph 0.02 in Rain , Thunderstorm Light Thunderstorms and Rain
10:15 AM 70.9 °F - 66.9 °F 87% 29.97 in 10.0 mi NNE 8.1 mph - 0.02 in Rain , Thunderstorm Light Thunderstorms and Rain
10:55 AM 70.3 °F - 67.5 °F 91% 29.90 in 4.0 mi SE 10.4 mph - 0.38 in Rain , Thunderstorm Thunderstorms and Rain
11:15 AM 72.3 °F - 68.5 °F 88% 29.89 in 10.0 mi SE 11.5 mph 17.3 mph N/A Thunderstorm Thunderstorm
11:35 AM 76.3 °F - 71.6 °F 85% 29.88 in 10.0 mi SE 10.4 mph 18.4 mph N/A   Scattered Clouds
11:55 AM 79.0 °F - 73.2 °F 82% 29.88 in 10.0 mi SE 8.1 mph 16.1 mph N/A   Scattered Clouds
12:15 PM 81.7 °F 87.6 °F 74.3 °F 78% 29.87 in 10.0 mi SE 12.7 mph 18.4 mph N/A   Clear
12:35 PM 83.7 °F 91.7 °F 75.2 °F 76% 29.87 in 10.0 mi SSE 8.1 mph 16.1 mph N/A   Clear
12:55 PM 84.9 °F 93.3 °F 75.0 °F 72% 29.87 in 10.0 mi SSE 12.7 mph 18.4 mph N/A   Clear
1:15 PM 86.4 °F 95.5 °F 75.0 °F 69% 29.86 in 10.0 mi SSE 9.2 mph 18.4 mph N/A   Clear
1:35 PM 87.6 °F 97.6 °F 75.4 °F 67% 29.85 in 10.0 mi South 11.5 mph 16.1 mph N/A   Clear
1:55 PM 87.8 °F 96.6 °F 74.5 °F 64% 29.85 in 10.0 mi South 12.7 mph 18.4 mph N/A   Scattered Clouds
2:15 PM 88.9 °F 99.7 °F 75.7 °F 65% 29.85 in 10.0 mi SSE 10.4 mph 16.1 mph N/A   Clear
2:35 PM 89.4 °F 100.0 °F 75.2 °F 63% 29.83 in 10.0 mi South 12.7 mph - N/A   Clear
2:55 PM 89.8 °F 100.3 °F 75.0 °F 62% 29.82 in 10.0 mi South 16.1 mph 20.7 mph N/A   Clear
3:15 PM 90.1 °F 101.2 °F 75.4 °F 62% 29.83 in 10.0 mi South 15.0 mph 20.7 mph N/A   Clear
3:55 PM 91.0 °F 103.5 °F 76.3 °F 62% 29.83 in 10.0 mi South 8.1 mph - N/A   Clear
4:35 PM 91.2 °F 102.7 °F 75.7 °F 60% 29.83 in 10.0 mi South 11.5 mph 16.1 mph N/A   Clear
4:55 PM 91.4 °F 103.8 °F 76.3 °F 61% 29.83 in 10.0 mi SSW 6.9 mph - N/A   Scattered Clouds
5:15 PM 90.9 °F 103.7 °F 76.8 °F 63% 29.83 in 10.0 mi South 9.2 mph - N/A   Scattered Clouds
5:35 PM 91.0 °F 103.5 °F 76.5 °F 62% 29.83 in 10.0 mi SSE 5.8 mph - N/A   Scattered Clouds
5:55 PM 90.0 °F 102.5 °F 76.6 °F 65% 29.83 in 10.0 mi South 3.5 mph - N/A   Scattered Clouds
6:15 PM 90.5 °F 103.4 °F 76.8 °F 64% 29.83 in 10.0 mi SSE 3.5 mph - N/A   Scattered Clouds
7:15 PM 90.0 °F 102.5 °F 77.0 °F 65% 29.83 in 10.0 mi SSE 4.6 mph - N/A   Clear
7:35 PM 89.6 °F 102.2 °F 77.0 °F 66% 29.83 in 10.0 mi SSE 4.6 mph - N/A   Scattered Clouds
7:55 PM 88.7 °F 101.0 °F 76.8 °F 68% 29.83 in 10.0 mi SSE 4.6 mph - N/A   Mostly Cloudy
8:15 PM 87.4 °F 98.7 °F 76.6 °F 70% 29.83 in 10.0 mi SE 4.6 mph - N/A   Scattered Clouds
8:35 PM 86.4 °F 96.9 °F 76.5 °F 72% 29.84 in 10.0 mi SSE 4.6 mph - N/A   Clear
8:55 PM 86.2 °F 96.0 °F 75.9 °F 71% 29.85 in 10.0 mi SSE 4.6 mph - N/A   Clear
9:15 PM 85.3 °F 94.6 °F 75.6 °F 73% 29.85 in 10.0 mi SSE 5.8 mph - N/A   Clear
9:55 PM 83.1 °F 90.4 °F 75.0 °F 76% 29.86 in 10.0 mi Calm Calm - N/A   Clear
10:15 PM 83.5 °F 90.0 °F 73.8 °F 72% 29.86 in 10.0 mi SSE 3.5 mph - N/A   Clear
10:35 PM 83.8 °F 90.1 °F 73.0 °F 70% 29.88 in 10.0 mi SSE 4.6 mph - N/A   Clear
10:55 PM 83.8 °F 89.8 °F 72.5 °F 69% 29.89 in 10.0 mi SSE 4.6 mph - N/A   Clear
11:15 PM 83.8 °F 89.5 °F 72.3 °F 68% 29.89 in 10.0 mi SSE 4.6 mph - N/A   Scattered Clouds
11:35 PM 83.8 °F 89.5 °F 72.1 °F 68% 29.90 in 10.0 mi SSE 3.5 mph - N/A   Mostly Cloudy
11:55 PM 83.5 °F 89.1 °F 72.1 °F 69% 29.90 in 10.0 mi SSE 4.6 mph - N/A   Overcast